Weather History for LGKZ - June, 2013

Change the Weather History Date:

Thursday, June 27, 2013

  Actual Average Record
Temperature  
Mean Temperature 65 °F -  
Max Temperature 71 °F - - ()
Min Temperature 59 °F - - ()
Growing Degree Days 15 (Base 50)    
Moisture  
Dew Point 50 °F    
Average Humidity 64    
Maximum Humidity 82    
Minimum Humidity 46    
Precipitation  
Precipitation 0.00 in - - ()
Sea Level Pressure  
Sea Level Pressure 30.04 in    
Wind  
Wind Speed 12 mph ()    
Max Wind Speed 17 mph    
Max Gust Speed 23 mph    
Visibility 6.2 miles    
Events Rain    
T = Trace of Precipitation, MM = Missing Value Source: Averaged Metar Reports

Daily Weather History Graph

Daily Weather History Graph

Search for Another Location

Airport or City:

Trip Planner

Search our weather history database for the weather conditions in past years. The results will help you decide how hot, cold, wet, or windy it might be!

Date:

Astronomy

Jun. 27, 2013 Rise Set
Actual Time 6:04 AM EEST 9:06 PM EEST
Civil Twilight 5:31 AM EEST 9:39 PM EEST
Nautical Twilight 4:49 AM EEST 10:21 PM EEST
Astronomical Twilight 4:00 AM EEST 11:10 PM EEST
Moon 11:52 PM EEST (6/27) 10:45 AM EEST (6/27)
Length of Visible Light 16h 07m
Length of Day
15h 01m
Waning Gibbous, 79% of the Moon is Illuminated
Jun 27
Waning Gibbous
Jun 30
Last Quarter
Jul 8
New
Jul 16
First Quarter
Jul 22
Full

Hourly Weather History & Observations

Time (EEST) Temp. Dew Point Humidity Pressure Visibility Wind Dir Wind Speed Gust Speed Precip Events Conditions
12:20 AM 60.8 °F 55.4 °F 82% 30.04 in - NW 12.7 mph - N/A   Unknown
12:50 AM 60.8 °F 53.6 °F 77% 30.04 in - NW 12.7 mph - N/A   Unknown
1:20 AM 60.8 °F 53.6 °F 77% 30.04 in - NNW 13.8 mph - N/A Rain Light Rain
1:50 AM 60.8 °F 53.6 °F 77% 30.04 in - North 12.7 mph - N/A   Unknown
2:20 AM 60.8 °F 51.8 °F 72% 30.04 in - NNW 13.8 mph - N/A   Unknown
2:50 AM 60.8 °F 51.8 °F 72% 30.04 in - NNW 15.0 mph - N/A   Unknown
3:20 AM 60.8 °F 50.0 °F 68% 30.04 in - NNW 15.0 mph - N/A   Unknown
3:50 AM 60.8 °F 50.0 °F 68% 30.04 in - NNW 12.7 mph - N/A   Unknown
4:20 AM 59.0 °F 50.0 °F 72% 30.04 in - NNW 13.8 mph - N/A   Unknown
4:50 AM 60.8 °F 50.0 °F 68% 30.04 in - North 13.8 mph - N/A   Unknown
5:20 AM 59.0 °F 50.0 °F 72% 30.04 in - NNW 15.0 mph - N/A   Unknown
5:50 AM 59.0 °F 48.2 °F 67% 30.04 in - North 15.0 mph - N/A   Unknown
6:20 AM 59.0 °F 48.2 °F 67% 30.04 in - NW 11.5 mph 23.0 mph N/A   Unknown
6:50 AM 59.0 °F 48.2 °F 67% 30.04 in - NNW 12.7 mph - N/A   Unknown
7:20 AM 59.0 °F 48.2 °F 67% 30.04 in - NNW 13.8 mph - N/A   Unknown
7:50 AM 60.8 °F 48.2 °F 63% 30.04 in - NNW 13.8 mph - N/A   Unknown
8:20 AM 60.8 °F 48.2 °F 63% 30.06 in - NNW 17.3 mph - N/A   Unknown
8:50 AM 59.0 °F 50.0 °F 72% 30.06 in - NNW 10.4 mph - N/A Rain Light Rain
9:20 AM 59.0 °F 50.0 °F 72% 30.06 in - NNW 13.8 mph - N/A   Unknown
9:50 AM 59.0 °F 50.0 °F 72% 30.06 in - NNW 13.8 mph - N/A   Unknown
10:20 AM 59.0 °F 50.0 °F 72% 30.06 in - NNW 12.7 mph - N/A Rain Light Rain
10:50 AM 59.0 °F 48.2 °F 67% 30.06 in - NNW 15.0 mph - N/A   Unknown
11:20 AM 60.8 °F 50.0 °F 68% 30.06 in - NNW 15.0 mph - N/A   Unknown
11:50 AM 62.6 °F 48.2 °F 59% 30.06 in - NNW 13.8 mph - N/A   Unknown
12:20 PM 62.6 °F 48.2 °F 59% 30.06 in - NNW 13.8 mph - N/A   Unknown
12:50 PM 64.4 °F 48.2 °F 56% 30.06 in - NNW 13.8 mph - N/A   Unknown
1:20 PM 66.2 °F 48.2 °F 52% 30.06 in - NNW 13.8 mph - N/A   Unknown
1:50 PM 68.0 °F 48.2 °F 49% 30.06 in 6.2 mi NNW 10.4 mph - N/A   Scattered Clouds
2:50 PM 69.8 °F 50.0 °F 49% 30.04 in 6.2 mi NW 12.7 mph - N/A   Scattered Clouds
3:50 PM 71.6 °F 50.0 °F 46% 30.04 in 6.2 mi NW 10.4 mph - N/A   Scattered Clouds
4:50 PM 69.8 °F 50.0 °F 49% 30.01 in 6.2 mi NW 10.4 mph - N/A   Mostly Cloudy
5:50 PM 71.6 °F 50.0 °F 46% 30.01 in 6.2 mi North 11.5 mph - N/A   Mostly Cloudy
6:50 PM 71.6 °F 50.0 °F 46% 30.01 in 6.2 mi NW 9.2 mph - N/A   Mostly Cloudy
7:50 PM 68.0 °F 50.0 °F 52% 30.01 in 6.2 mi NNW 10.4 mph - N/A   Mostly Cloudy
8:50 PM 66.2 °F 51.8 °F 60% 30.01 in 6.2 mi NW 12.7 mph - N/A   Mostly Cloudy
9:20 PM 64.4 °F 51.8 °F 64% 30.04 in - North 11.5 mph - N/A   Unknown
9:50 PM 64.4 °F 50.0 °F 59% 30.04 in - NW 8.1 mph - N/A Rain Light Rain
10:20 PM 64.4 °F 51.8 °F 64% 30.04 in - NW 10.4 mph - N/A Rain Light Rain
10:50 PM 64.4 °F 50.0 °F 59% 30.04 in - NW 9.2 mph - N/A   Unknown
11:20 PM 62.6 °F 51.8 °F 68% 30.04 in - NNW 11.5 mph - N/A   Unknown
11:50 PM 64.4 °F 50.0 °F 59% 30.04 in - NW 12.7 mph - N/A   Unknown